Atari, India

5:07 PM IST on February 27, 2017 (GMT +0530)
Amritsar

Weather History for VIAR - December, 2012

Change the Weather History Date:

Tuesday, December 4, 2012

  Actual Average Record
Temperature  
Mean Temperature 58 °F -  
Max Temperature 76 °F 69 °F 85 °F (2014)
Min Temperature 39 °F 42 °F 37 °F (2000)
Degree Days  
Heating Degree Days 8    
Growing Degree Days 8 (Base 50)    
Moisture  
Dew Point 47 °F    
Average Humidity 74    
Maximum Humidity 100    
Minimum Humidity 34    
Precipitation  
Precipitation 0.00 in - - ()
Sea Level Pressure  
Sea Level Pressure 30.03 in    
Wind  
Wind Speed 1 mph ()    
Max Wind Speed 7 mph    
Max Gust Speed -    
Visibility 2.0 miles    
Events      
Averages and records for this station are not official NWS values.
T = Trace of Precipitation, MM = Missing Value Source: Averaged Metar Reports

Daily Weather History Graph

Daily Weather History Graph

Search for Another Location

Airport or City:

Trip Planner

Search our weather history database for the weather conditions in past years. The results will help you decide how hot, cold, wet, or windy it might be!

Date:

Astronomy

Dec. 04, 2012 Rise Set
Actual Time 7:14 AM IST 5:26 PM IST
Civil Twilight 6:48 AM IST 5:53 PM IST
Nautical Twilight 6:18 AM IST 6:23 PM IST
Astronomical Twilight 5:48 AM IST 6:52 PM IST
Moon 10:34 PM IST (12/4) 11:05 AM IST (12/4)
Length of Visible Light 11h 05m
Length of Day
10h 11m
Waning Gibbous, 73% of the Moon is Illuminated
Dec 4
Waning Gibbous
Dec 6
Last Quarter
Dec 13
New
Dec 20
First Quarter
Dec 28
Full

Hourly Weather History & Observations

Time (IST) Temp. Dew Point Humidity Pressure Visibility Wind Dir Wind Speed Gust Speed Precip Events Conditions
12:00 AM 53.6 °F 53.6 °F 100% 30.06 in 1.4 mi Calm Calm - N/A   Mist
12:30 AM 53.6 °F 53.6 °F 100% 30.04 in 1.4 mi Calm Calm - N/A   Mist
1:00 AM 53.6 °F 53.6 °F 100% 30.04 in 1.4 mi Calm Calm - N/A   Mist
1:30 AM 53.6 °F 53.6 °F 100% 30.04 in 1.4 mi Calm Calm - N/A   Mist
2:00 AM 51.8 °F 51.8 °F 100% 30.04 in 1.6 mi Calm Calm - N/A   Mist
2:30 AM 50.0 °F 50.0 °F 100% 30.04 in 1.6 mi Calm Calm - N/A   Mist
3:00 AM 48.2 °F 48.2 °F 100% 30.04 in 1.2 mi Calm Calm - N/A   Mist
3:30 AM 48.2 °F 48.2 °F 100% 30.04 in 1.2 mi Calm Calm - N/A   Mist
4:00 AM 48.2 °F 48.2 °F 100% 30.01 in 1.2 mi Calm Calm - N/A   Mist
4:30 AM 46.4 °F 46.4 °F 100% 30.01 in 1.2 mi Calm Calm - N/A   Mist
5:00 AM 44.6 °F 44.6 °F 100% 30.01 in 1.2 mi Calm Calm - N/A   Mist
5:30 AM 42.8 °F 42.8 °F 100% 30.01 in 1.2 mi Calm Calm - N/A   Mist
6:30 AM 42.8 °F 42.8 °F 100% 30.04 in 0.6 mi Calm Calm - N/A   Mist
7:00 AM 42.8 °F 42.8 °F 100% 30.04 in 1.2 mi Calm Calm - N/A   Mist
7:30 AM 42.8 °F 42.8 °F 100% 30.04 in 1.2 mi Calm Calm - N/A   Mist
8:00 AM 42.8 °F 42.8 °F 100% 30.04 in 1.2 mi Calm Calm - N/A   Mist
8:30 AM 44 °F 43 °F 93% 30.07 in 1 mi Calm Calm - -   Mist
8:30 AM 42.8 °F 42.8 °F 100% 30.04 in 0.9 mi Calm Calm - N/A   Mist
9:00 AM 46.4 °F 44.6 °F 93% 30.06 in 0.9 mi Calm Calm - N/A   Mist
9:30 AM 50.0 °F 46.4 °F 87% 30.06 in 0.9 mi Calm Calm - N/A   Mist
10:00 AM 51.8 °F 48.2 °F 88% 30.06 in 1.6 mi Calm Calm - N/A   Mist
11:00 AM 57.2 °F 50.0 °F 77% 30.09 in 1.9 mi Variable 2.3 mph - N/A   Mist
11:30 AM 60 °F 49 °F 59% 30.09 in 2 mi West 4.6 mph - -   Haze
11:30 AM 60.8 °F 50.0 °F 68% 30.09 in 2.5 mi West 4.6 mph - N/A   Haze
12:00 PM 62.6 °F 46.4 °F 55% 30.06 in 2.5 mi West 4.6 mph - N/A   Haze
1:00 PM 68.0 °F 44.6 °F 43% 30.04 in 3.1 mi West 4.6 mph - N/A   Smoke
2:00 PM 69.8 °F 42.8 °F 38% 30.04 in 3.7 mi West 6.9 mph - N/A   Unknown
2:30 PM 69.8 °F 42.8 °F 38% 30.04 in 3.7 mi West 4.6 mph - N/A   Unknown
3:00 PM 69.8 °F 44.6 °F 40% 30.01 in 3.7 mi West 3.5 mph - N/A   Unknown
3:30 PM 68.0 °F 44.6 °F 43% 30.01 in 3.7 mi West 4.6 mph - N/A   Unknown
4:00 PM 68.0 °F 44.6 °F 43% 29.98 in 3.7 mi WNW 4.6 mph - N/A   Unknown
4:30 PM 68.0 °F 44.6 °F 43% 29.98 in 3.7 mi Variable 1.2 mph - N/A   Unknown
5:00 PM 68.0 °F 44.6 °F 43% 29.98 in 3.7 mi Calm Calm - N/A   Unknown
5:30 PM 66 °F 44 °F 34% 30.01 in 2 mi Calm Calm - -  
5:30 PM 66.2 °F 44.6 °F 46% 0.00 in 3.7 mi Calm Calm - N/A   Unknown
6:30 PM 62.6 °F 46.4 °F 55% 30.01 in 3.1 mi Calm Calm - N/A   Haze
7:00 PM 62.6 °F 48.2 °F 59% 30.01 in 3.1 mi Calm Calm - N/A   Haze
7:30 PM 60.8 °F 46.4 °F 59% 30.01 in 3.1 mi Calm Calm - N/A   Haze
8:00 PM 60.8 °F 46.4 °F 59% 30.01 in 3.1 mi Calm Calm - N/A   Haze
8:30 PM 59 °F 47 °F 55% 30.01 in 1 mi Calm Calm - -   Haze
8:30 PM 59.0 °F 46.4 °F 63% 30.01 in 2.5 mi Calm Calm - N/A   Haze
9:30 PM 57.2 °F 46.4 °F 67% 30.01 in 1.6 mi Calm Calm - N/A   Haze
10:00 PM 57.2 °F 46.4 °F 67% 30.01 in 1.6 mi Calm Calm - N/A   Haze
10:30 PM 57.2 °F 46.4 °F 67% 30.04 in 1.6 mi Calm Calm - N/A   Haze
11:00 PM 55.4 °F 46.4 °F 72% 30.04 in 1.2 mi Calm Calm - N/A   Haze
11:30 PM 54 °F 46 °F 66% 30.03 in 1 mi Calm Calm - -   Mist
11:30 PM 55.4 °F 46.4 °F 72% 30.04 in 1.2 mi Calm Calm - N/A   Mist